TimeMST,TemperatureF,Dew PointF,Humidity,Sea Level PressureIn,VisibilityMPH,Wind Direction,Wind SpeedMPH,Gust SpeedMPH,PrecipitationIn,Events,Conditions,WindDirDegrees,DateUTC
12:53 AM,37.9,24.1,57,30.03,10.0,SW,6.9,-,N/A,,Partly Cloudy,230,2013-02-05 07:53:00
1:53 AM,36.0,24.1,62,30.04,10.0,WSW,5.8,-,N/A,,Clear,250,2013-02-05 08:53:00
2:53 AM,34.0,24.1,67,30.03,10.0,SW,5.8,-,N/A,,Clear,230,2013-02-05 09:53:00
3:53 AM,32.0,25.0,75,30.01,10.0,Calm,Calm,-,N/A,,Partly Cloudy,0,2013-02-05 10:53:00
4:53 AM,32.0,25.0,75,30.02,10.0,West,3.5,-,N/A,,Overcast,270,2013-02-05 11:53:00
5:53 AM,32.0,26.1,79,30.01,10.0,Calm,Calm,-,N/A,,Overcast,0,2013-02-05 12:53:00
6:53 AM,30.9,25.0,79,30.00,10.0,Calm,Calm,-,N/A,,Overcast,0,2013-02-05 13:53:00
7:53 AM,32.0,25.0,75,30.00,10.0,NNW,3.5,-,N/A,,Overcast,340,2013-02-05 14:53:00
8:53 AM,33.1,26.1,75,30.00,10.0,South,3.5,-,N/A,,Overcast,180,2013-02-05 15:53:00
9:53 AM,35.1,26.1,70,29.97,10.0,NNE,3.5,-,N/A,,Overcast,30,2013-02-05 16:53:00
10:53 AM,37.9,26.1,62,29.95,10.0,NNW,3.5,-,N/A,,Mostly Cloudy,340,2013-02-05 17:53:00
11:53 AM,39.9,26.1,58,29.93,10.0,Calm,Calm,-,N/A,,Overcast,0,2013-02-05 18:53:00
12:53 PM,39.9,27.0,60,29.90,10.0,SE,5.8,-,N/A,,Overcast,130,2013-02-05 19:53:00
1:53 PM,42.1,28.9,60,29.86,10.0,East,5.8,-,N/A,,Partly Cloudy,100,2013-02-05 20:53:00
2:53 PM,43.0,28.9,58,29.84,10.0,Calm,Calm,-,N/A,,Mostly Cloudy,0,2013-02-05 21:53:00
3:53 PM,42.1,28.9,60,29.85,10.0,West,5.8,-,N/A,,Scattered Clouds,260,2013-02-05 22:53:00
4:53 PM,42.1,28.9,60,29.84,10.0,WSW,3.5,-,N/A,,Overcast,250,2013-02-05 23:53:00
5:53 PM,42.1,28.9,60,29.83,10.0,Calm,Calm,-,N/A,,Mostly Cloudy,0,2013-02-06 00:53:00
6:53 PM,36.0,28.9,76,29.85,10.0,West,8.1,-,N/A,,Mostly Cloudy,280,2013-02-06 01:53:00
7:53 PM,35.1,27.0,72,29.86,10.0,West,3.5,-,N/A,,Mostly Cloudy,260,2013-02-06 02:53:00
8:53 PM,33.1,27.0,78,29.86,10.0,ENE,3.5,-,N/A,,Mostly Cloudy,60,2013-02-06 03:53:00
9:53 PM,34.0,27.0,75,29.86,10.0,SSE,4.6,-,N/A,,Mostly Cloudy,160,2013-02-06 04:53:00
10:53 PM,35.1,25.0,67,29.87,10.0,Calm,Calm,-,N/A,,Overcast,0,2013-02-06 05:53:00
11:53 PM,37.9,27.0,65,29.88,10.0,West,6.9,-,N/A,,Overcast,260,2013-02-06 06:53:00